Weather History for Brunswick, GA

Change the Weather History Date:

Tuesday, January 1, 2013

  Actual Average Record
Temperature  
Mean Temperature 61 °F -  
Max Temperature 78 °F 65 °F 81 °F (1952)
Min Temperature 44 °F 43 °F 23 °F (1984)
Degree Days  
Heating Degree Days 4    
Growing Degree Days 11 (Base 50)    
Moisture  
Dew Point 55 °F    
Average Humidity 81    
Maximum Humidity 100    
Minimum Humidity 50    
Precipitation  
Precipitation 0.00 in - - ()
Sea Level Pressure  
Sea Level Pressure 30.11 in    
Wind  
Wind Speed 3 mph (SSW)    
Max Wind Speed 15 mph    
Max Gust Speed 18 mph    
Visibility 7 miles    
Events      
Averages and records for this station are not official NWS values.
T = Trace of Precipitation, MM = Missing Value Source: NWS Daily Summary

Daily Weather History Graph

Daily Weather History Graph

Search for Another Location

Airport:

Trip Planner

Search our weather history database for the weather conditions in past years. The results will help you decide how hot, cold, wet, or windy it might be!

Date:

Astronomy

Jan. 01, 2013 Rise Set
Actual Time 7:24 AM EST 5:34 PM EST
Civil Twilight 6:58 AM EST 6:01 PM EST
Nautical Twilight 6:27 AM EST 6:31 PM EST
Astronomical Twilight 5:58 AM EST 7:00 PM EST
Moon 9:45 PM EST (1/1) 9:52 AM EST (1/1)
Length of Visible Light 11h 03m
Length of Day
10h 09m
Waning Gibbous, 83% of the Moon is Illuminated
Jan 1
Waning Gibbous
Jan 4
Last Quarter
Jan 11
New
Jan 18
First Quarter
Jan 26
Full

Hourly Weather History & Observations

Time (EST) Temp. Dew Point Humidity Pressure Visibility Wind Dir Wind Speed Gust Speed Precip Events Conditions
12:15 AM 46.4 °F 46.4 °F 100% 30.24 in 1.0 mi Calm Calm - N/A   Unknown
12:35 AM 44.6 °F 44.6 °F 100% 30.24 in 0.5 mi Calm Calm - N/A   Unknown
12:55 AM 44.6 °F 44.6 °F 100% 30.22 in 3.0 mi Calm Calm - N/A   Clear
1:15 AM 46.4 °F 44.6 °F 93% 30.21 in 4.0 mi Calm Calm - N/A   Clear
1:35 AM 46.4 °F 46.4 °F 100% 30.20 in 7.0 mi Calm Calm - N/A   Clear
1:55 AM 46.4 °F 46.4 °F 100% 30.19 in 1.8 mi Calm Calm - N/A   Mostly Cloudy
2:15 AM 46.4 °F 44.6 °F 93% 30.19 in 5.0 mi Calm Calm - N/A   Scattered Clouds
2:35 AM 46.4 °F 46.4 °F 100% 30.19 in 4.0 mi Calm Calm - N/A   Clear
2:55 AM 46.4 °F 46.4 °F 100% 30.18 in 3.0 mi Calm Calm - N/A   Clear
3:15 AM 46.4 °F 46.4 °F 100% 30.18 in 1.2 mi Calm Calm - N/A   Unknown
3:35 AM 46.4 °F 46.4 °F 100% 30.19 in 2.0 mi Calm Calm - N/A   Clear
3:55 AM 46.4 °F 46.4 °F 100% 30.19 in 5.0 mi Calm Calm - N/A   Mostly Cloudy
4:15 AM 50.0 °F 48.2 °F 94% 30.18 in 4.0 mi Calm Calm - N/A   Overcast
4:35 AM 48.2 °F 46.4 °F 93% 30.18 in 2.5 mi Calm Calm - N/A   Mostly Cloudy
4:55 AM 48.2 °F 48.2 °F 100% 30.16 in 3.0 mi Calm Calm - N/A   Mostly Cloudy
5:15 AM 46.4 °F 46.4 °F 100% 30.16 in 0.8 mi Calm Calm - N/A   Mostly Cloudy
5:35 AM 46.4 °F 46.4 °F 100% 30.15 in 0.2 mi Calm Calm - N/A   Mostly Cloudy
5:55 AM 46.4 °F 44.6 °F 93% 30.14 in 1.0 mi Calm Calm - N/A   Mostly Cloudy
6:15 AM 46.4 °F 46.4 °F 100% 30.14 in 0.5 mi Calm Calm - N/A   Scattered Clouds
6:35 AM 46.4 °F 44.6 °F 93% 30.13 in 0.2 mi Calm Calm - N/A   Overcast
6:55 AM 46.4 °F 46.4 °F 100% 30.14 in 0.8 mi Calm Calm - N/A   Mostly Cloudy
7:15 AM 46.4 °F 44.6 °F 93% 30.14 in 0.5 mi Calm Calm - N/A   Unknown
7:35 AM 46.4 °F 46.4 °F 100% 30.14 in 1.2 mi Calm Calm - N/A   Unknown
7:55 AM 46.4 °F 46.4 °F 100% 30.15 in 2.5 mi Calm Calm - N/A   Clear
8:15 AM 50.0 °F 50.0 °F 100% 30.15 in 3.0 mi Calm Calm - N/A   Clear
8:35 AM 55.4 °F 55.4 °F 100% 30.16 in 7.0 mi SW 3.5 mph - N/A   Clear
8:55 AM 57.2 °F 57.2 °F 100% 30.16 in 7.0 mi SW 5.8 mph - N/A   Clear
9:15 AM 59.0 °F 59.0 °F 100% 30.17 in 10.0 mi WSW 3.5 mph - N/A   Scattered Clouds
9:35 AM 60.8 °F 59.0 °F 94% 30.17 in 10.0 mi SSW 4.6 mph - N/A   Mostly Cloudy
9:55 AM 64.4 °F 59.0 °F 83% 30.18 in 10.0 mi SW 8.1 mph - N/A   Mostly Cloudy
10:15 AM 64.4 °F 59.0 °F 83% 30.18 in 10.0 mi SW 5.8 mph - N/A   Overcast
10:35 AM 64.4 °F 59.0 °F 83% 30.17 in 10.0 mi SSW 4.6 mph - N/A   Overcast
10:55 AM 69.8 °F 59.0 °F 68% 30.16 in 10.0 mi SSW 9.2 mph - N/A   Mostly Cloudy
11:15 AM 71.6 °F 59.0 °F 64% 30.15 in 10.0 mi SSW 5.8 mph - N/A   Overcast
11:35 AM 73.4 °F 59.0 °F 61% 30.14 in 10.0 mi SW 9.2 mph - N/A   Overcast
11:55 AM 73.4 °F 59.0 °F 61% 30.13 in 10.0 mi SSW 13.8 mph 18.4 mph N/A   Overcast
12:15 PM 73.4 °F 59.0 °F 61% 30.11 in 10.0 mi SSW 9.2 mph - N/A   Overcast
12:35 PM 75.2 °F 59.0 °F 57% 30.11 in 10.0 mi SSW 11.5 mph 16.1 mph N/A   Overcast
12:55 PM 77.0 °F 59.0 °F 54% 30.09 in 10.0 mi SW 15.0 mph - N/A   Overcast
1:15 PM 73.4 °F 59.0 °F 61% 30.08 in 10.0 mi WSW 9.2 mph - N/A   Overcast
1:35 PM 73.4 °F 59.0 °F 61% 30.07 in 10.0 mi WSW 10.4 mph - N/A   Scattered Clouds
1:55 PM 75.2 °F 59.0 °F 57% 30.06 in 10.0 mi SW 10.4 mph 16.1 mph N/A   Mostly Cloudy
2:15 PM 77.0 °F 59.0 °F 54% 30.06 in 10.0 mi WSW 11.5 mph - N/A   Scattered Clouds
2:35 PM 77.0 °F 59.0 °F 54% 30.05 in 10.0 mi SW 10.4 mph - N/A   Scattered Clouds
2:55 PM 77.0 °F 59.0 °F 54% 30.05 in 10.0 mi WSW 10.4 mph 16.1 mph N/A   Scattered Clouds
3:15 PM 78.8 °F 59.0 °F 51% 30.05 in 10.0 mi SW 10.4 mph - N/A   Scattered Clouds
3:35 PM 77.0 °F 59.0 °F 54% 30.05 in 10.0 mi WSW 10.4 mph - N/A   Clear
3:55 PM 77.0 °F 57.2 °F 50% 30.05 in 10.0 mi WSW 12.7 mph - N/A   Clear
4:15 PM 75.2 °F 59.0 °F 57% 30.05 in 10.0 mi SW 9.2 mph - N/A   Clear
4:35 PM 75.2 °F 59.0 °F 57% 30.04 in 10.0 mi SW 6.9 mph - N/A   Scattered Clouds
4:55 PM 73.4 °F 59.0 °F 61% 30.03 in 10.0 mi SSW 5.8 mph - N/A   Scattered Clouds
5:15 PM 73.4 °F 59.0 °F 61% 30.03 in 10.0 mi SW 5.8 mph - N/A   Clear
5:35 PM 71.6 °F 59.0 °F 64% 30.03 in 10.0 mi South 3.5 mph - N/A   Clear
5:55 PM 68.0 °F 59.0 °F 73% 30.03 in 10.0 mi SSE 4.6 mph - N/A   Clear
6:15 PM 64.4 °F 59.0 °F 83% 30.03 in 10.0 mi SSE 4.6 mph - N/A   Clear
6:35 PM 64.4 °F 60.8 °F 88% 30.03 in 10.0 mi SSE 5.8 mph - N/A   Mostly Cloudy
6:55 PM 64.4 °F 60.8 °F 88% 30.03 in 10.0 mi SSE 4.6 mph - N/A   Overcast
7:15 PM 64.4 °F 60.8 °F 88% 30.03 in 10.0 mi South 3.5 mph - N/A   Overcast
7:35 PM 64.4 °F 60.8 °F 88% 30.03 in 10.0 mi South 3.5 mph - N/A   Overcast
7:55 PM 64.4 °F 60.8 °F 88% 30.03 in 10.0 mi South 4.6 mph - N/A   Overcast
8:15 PM 66.2 °F 59.0 °F 78% 30.03 in 10.0 mi South 5.8 mph - N/A   Overcast
8:35 PM 68.0 °F 59.0 °F 73% 30.03 in 10.0 mi SSW 8.1 mph - N/A   Mostly Cloudy
8:55 PM 68.0 °F 59.0 °F 73% 30.03 in 10.0 mi SSW 8.1 mph - N/A   Scattered Clouds
9:15 PM 68.0 °F 59.0 °F 73% 30.02 in 10.0 mi SSW 6.9 mph - N/A   Mostly Cloudy
9:35 PM 69.8 °F 59.0 °F 68% 30.03 in 10.0 mi SSW 8.1 mph - N/A   Overcast
9:55 PM 68.0 °F 59.0 °F 73% 30.02 in 10.0 mi SSW 8.1 mph - N/A   Overcast
10:15 PM 68.0 °F 59.0 °F 73% 30.03 in 10.0 mi SSW 8.1 mph - N/A   Scattered Clouds
10:35 PM 66.2 °F 59.0 °F 78% 30.03 in 10.0 mi SSW 8.1 mph - N/A   Clear
10:55 PM 66.2 °F 59.0 °F 78% 30.02 in 10.0 mi SSW 8.1 mph - N/A   Scattered Clouds
11:15 PM 66.2 °F 59.0 °F 78% 30.01 in 10.0 mi SSW 8.1 mph - N/A   Clear
11:35 PM 64.4 °F 59.0 °F 83% 30.01 in 10.0 mi SW 6.9 mph - N/A   Clear
11:55 PM 64.4 °F 59.0 °F 83% 30.01 in 10.0 mi SSW 6.9 mph - N/A   Clear